Location: Bovenkerk
(52.2915°N, 4.8336°E)
Time: 23:43:34
(UTC+00:00)

SAR-Lupe-2 - Pass Details

Date: 09 April 2020
Orbit: 481 x 485 km, 98.1° (Epoch: 20 May)

Event Time Altitude Azimuth Distance (km) Brightness Sun altitude
Rises 20:14:22 0° 18° (NNE) 2,558 7.5 -15.3°
Reaches altitude 10° 20:16:30 10° 24° (NNE) 1,673 6.4 -15.5°
Maximum altitude 20:20:00 50° 101° (E) 624 3.7 -16.0°
Enters shadow 20:21:21 31° 159° (SSE) 862 4.3 -16.1°
